Hatteras, NC

7:08 PM EDT on October 21, 2019 (GMT -0400)
Mitchell

Weather History for KHSE - August, 2019

Change the Weather History Date:

Friday, August 2, 2019

  Actual Average Record
Temperature  
Mean Temperature 81 °F 79 °F  
Max Temperature 87 °F 85 °F 92 °F (1970)
Min Temperature 75 °F 74 °F 58 °F (1964)
Degree Days  
Heating Degree Days 0 0  
Month to date heating degree days 0 0  
Since 1 June heating degree days 0 3  
Since 1 July heating degree days 0 0  
Cooling Degree Days 16 14  
Month to date cooling degree days 33 28  
Year to date cooling degree days 1333 916  
Since 1 June cooling degree days 951 773  
Growing Degree Days 31 (Base 50)    
Moisture  
Dew Point 74 °F    
Average Humidity 81    
Maximum Humidity 96    
Minimum Humidity 63    
Precipitation  
Precipitation 0.01 in 0.20 in 2.39 in (2016)
Month to date precipitation 0.01 0.39  
Year to date precipitation 31.73 30.65  
Snow  
Snow 0.00 in - - ()
Month to date snowfall 0.0  
Since 1 July snowfall 0.0  
Snow Depth 0.00 in    
Sea Level Pressure  
Sea Level Pressure 30.07 in    
Wind  
Wind Speed 4 mph ()    
Max Wind Speed 14 mph    
Max Gust Speed 17 mph    
Visibility 9.9 miles    
Events Rain    
T = Trace of Precipitation, MM = Missing Value Source: Averaged Metar Reports

Daily Weather History Graph

Daily Weather History Graph

Search for Another Location

Airport or City:

Astronomy

Aug. 02, 2019 Rise Set
Actual Time 6:12 AM EDT 8:05 PM EDT
Civil Twilight 5:44 AM EDT 8:32 PM EDT
Nautical Twilight 5:10 AM EDT 9:06 PM EDT
Astronomical Twilight 4:34 AM EDT 9:42 PM EDT
Moon 7:46 AM EDT (8/2) 9:35 PM EDT (8/2)
Length of Visible Light 14h 48m
Length of Day
13h 53m
Waxing Crescent, 4% of the Moon is Illuminated
Aug 2
Waxing Crescent
Aug 7
First Quarter
Aug 15
Full
Aug 23
Last Quarter
Aug 30
New

Hourly Weather History & Observations

Time (EDT) Temp. Heat Index Dew Point Humidity Pressure Visibility Wind Dir Wind Speed Gust Speed Precip Events Conditions
12:51 AM 75.9 °F - 73.9 °F 94% 30.07 in 10.0 mi Calm Calm - N/A   Clear
1:51 AM 75.9 °F - 73.9 °F 94% 30.07 in 10.0 mi Calm Calm - N/A   Clear
2:51 AM 75.0 °F - 73.9 °F 96% 30.06 in 9.0 mi Calm Calm - N/A   Clear
3:51 AM 77.0 °F - 75.0 °F 94% 30.06 in 10.0 mi NE 3.5 mph - N/A   Clear
4:51 AM 77.0 °F - 75.0 °F 94% 30.06 in 10.0 mi Calm Calm - N/A   Clear
5:51 AM 77.0 °F - 75.0 °F 94% 30.06 in 10.0 mi ENE 3.5 mph - N/A   Clear
6:51 AM 77.0 °F - 75.9 °F 96% 30.06 in 10.0 mi East 3.5 mph - N/A   Partly Cloudy
7:51 AM 78.1 °F - 75.9 °F 93% 30.07 in 10.0 mi ENE 4.6 mph - N/A   Clear
8:51 AM 81.0 °F 87.9 °F 77.0 °F 88% 30.09 in 10.0 mi ENE 3.5 mph - N/A   Clear
9:51 AM 82.0 °F 88.6 °F 75.0 °F 79% 30.08 in 10.0 mi ENE 4.6 mph - N/A   Scattered Clouds
10:51 AM 82.9 °F 89.4 °F 73.9 °F 74% 30.10 in 10.0 mi ESE 6.9 mph - N/A   Clear
11:51 AM 82.0 °F 89.4 °F 75.9 °F 82% 30.10 in 10.0 mi ESE 6.9 mph - 0.00 in Rain Light Rain
12:11 PM 80.1 °F 85.1 °F 75.0 °F 85% 30.10 in 9.0 mi South 9.2 mph - 0.00 in Rain Light Rain
12:24 PM 79.0 °F - 73.9 °F 84% 30.10 in 10.0 mi South 8.1 mph - 0.00 in Rain Light Rain
1:51 PM 84.9 °F 91.4 °F 73.0 °F 67% 30.09 in 10.0 mi SSE 10.4 mph - N/A   Clear
2:51 PM 84.9 °F 90.1 °F 71.1 °F 63% 30.07 in 10.0 mi SE 11.5 mph - N/A   Clear
3:51 PM 84.9 °F 90.7 °F 72.0 °F 65% 30.07 in 10.0 mi SE 9.2 mph - N/A   Clear
4:51 PM 82.9 °F 88.8 °F 73.0 °F 72% 30.07 in 10.0 mi SSE 9.2 mph - N/A   Clear
5:51 PM 82.9 °F 88.0 °F 72.0 °F 69% 30.06 in 10.0 mi SSE 8.1 mph - N/A   Mostly Cloudy
6:51 PM 82.0 °F 86.7 °F 72.0 °F 71% 30.05 in 10.0 mi SE 8.1 mph - N/A   Clear
7:51 PM 82.0 °F 86.7 °F 72.0 °F 71% 30.04 in 10.0 mi SSE 10.4 mph - N/A   Clear
8:51 PM 81.0 °F 85.2 °F 72.0 °F 74% 30.05 in 10.0 mi SSE 9.2 mph - N/A   Scattered Clouds
9:51 PM 81.0 °F 85.2 °F 72.0 °F 74% 30.05 in 10.0 mi SSE 10.4 mph - N/A   Scattered Clouds
10:51 PM 81.0 °F 85.2 °F 72.0 °F 74% 30.06 in 10.0 mi SE 8.1 mph - N/A   Clear
11:51 PM 81.0 °F 86.2 °F 73.9 °F 79% 30.05 in 10.0 mi SSE 8.1 mph - N/A   Partly Cloudy